STARLINK-4376 (53216 NORAD) Tracking and Keplerian Element Data

This shows tracking and keplerian element data for the satellite.

Feedback or suggestion? Click here.




ElementValue
Catalog53216
NameSTARLINK-4376
Epoch Orbit1072
Epoch Day270.1493417
Epoch Year2022
RAAN329.9708
Inclination97.6524
Eccentricity0.0002194
Argument of Perigee133.7577
Mean Anonmoly226.3829
Mean Motion15.01266185
Decay Rate1.372E-05
L11 53216U 22084AD 22270.14934170 .00001372 00000+0 11138-3 0 9994
L22 53216 97.6524 329.9708 0002194 133.7577 226.3829 15.01266185 10726

Live tracking and technical data element details for STARLINK-4376 (NORAD 53216). STARLINK-4376 can be tracked NOW for your location showing map with azimuth and elevation plus other details from your city location.

Track the satellite on the map from your city or location and see movement details for azimuth, elevation, latitude, longitude, range, height, and movement on the map or in text.







IsCatalogInMostPopularTable: catalog: 53216, numindb: 3
Update: records affected: 1



GetName: 53216 STARLINK-4376

Hit Count: updated at: Fri, 30 Sep 2022 02:49:31 GMT